Flag for Chile Weather past 2 weeks in Santiago, Chile

Now
48 °F

Passing clouds.


Feels Like: 48 °F
Forecast: 45 / 75 °F
Wind: 2 mph from North

Location: Pudahuel

Current Time: Sep 20, 2014 at 3:32:23 AM

Latest Report: Sep 20, 2014 at 3:00 AM


Visibility: 5 mi

Pressure: 30.18 "Hg

Humidity: 82%

Dew point: 43 °F

Location of SantiagoLocation

Historic Weather in Santiago — Graph

°F

Santiago temperature yesterday

Maximum temperature yesterday: 66 °F (at 4:00 PM)
Minimum temperature yesterday: 45 °F (at 4:00 AM)
Average temperature yesterday: 54 °F

Past Weeks' High & Low Weather Summary

 TemperatureHumidityPressure
High82 °F (Sep 15, 5:00 PM)100% (Sep 14, 9:00 AM)30.30 "Hg (Sep 14, 9:00 AM)
Low36 °F (Sep 11, 5:00 AM)21% (Sep 15, 6:00 PM)29.86 "Hg (Sep 11, 7:00 PM)
Average53 °F71%30.07 "Hg
* Reported Sep 5 1:00 AM — Sep 20 2:00 AM, Santiago, Weather by CustomWeather, © 2014

Note: Actual official high and low records may vary slightly from our data, if they occured in-between our weather recording intervals... More about our weather records

Advertising

Santiago weather history for previous 24 hours

 ConditionsComfort  
Time TempWeatherWind HumidityBarometerVisibility
2:00 AM
Sep 20
46 °FClear.5 mph87%30.21 "Hg5 mi
1:00 AM46 °FClear.3 mph87%30.21 "Hg5 mi
12:00 AM52 °FClear.2 mph77%30.24 "Hg10 mi
11:00 PM
Sep 19
55 °FClear.3 mph72%30.24 "Hg10 mi
10:00 PM57 °FPassing clouds.5 mph67%30.24 "HgN/A
9:00 PM59 °FClear.7 mph63%30.21 "Hg10 mi
8:00 PM61 °FClear.10 mph59%30.18 "Hg10 mi
7:00 PM63 °FClear.13 mph49%30.15 "Hg5 mi
6:00 PM66 °FClear.7 mph40%30.15 "Hg5 mi
5:00 PM66 °FClear.8 mph46%30.15 "Hg5 mi
4:00 PM66 °FClear.8 mph46%30.15 "Hg5 mi
3:00 PM64 °FPassing clouds.7 mph52%30.15 "Hg5 mi
2:00 PM61 °FScattered clouds.5 mph55%30.15 "Hg4 mi
1:00 PM57 °FScattered clouds.6 mph67%30.18 "Hg4 mi
12:00 PM55 °FPartly sunny.2 mph72%30.21 "Hg4 mi
11:00 AM52 °FPartly sunny.5 mph77%30.21 "Hg4 mi
10:00 AM48 °FOvercast.2 mph87%30.18 "Hg2 mi
9:00 AM46 °FOvercast.3 mph87%30.18 "Hg2 mi
8:00 AM45 °FOvercast.2 mph87%30.18 "Hg3 mi
7:00 AM46 °FPartly sunny.3 mph82%30.18 "Hg5 mi
6:00 AM46 °FPassing clouds.3 mph87%30.15 "HgN/A
5:00 AM45 °FPassing clouds.3 mph87%30.15 "HgN/A
4:00 AM45 °FPassing clouds.No wind87%30.15 "HgN/A
3:00 AM46 °FPassing clouds.1 mph82%30.18 "HgN/A
Weather by CustomWeather, © 2014

See weather overviewHow to use our weather pages